Hammond, LA

12:01 PM CDT on June 29, 2017 (GMT -0500)
Hammond Municipal

Weather History for KHDC - February, 2013

Change the Weather History Date:

Sunday, February 17, 2013

  Actual Average (KMSY) Record (KMSY)
Temperature  
Mean Temperature 46 °F -  
Max Temperature 60 °F 64 °F 79 °F (1967)
Min Temperature 32 °F 48 °F 28 °F (1980)
Degree Days  
Heating Degree Days 19    
Moisture  
Dew Point 31 °F    
Average Humidity 58    
Maximum Humidity 93    
Minimum Humidity 27    
Precipitation  
Precipitation 0.00 in - - ()
Sea Level Pressure  
Sea Level Pressure 30.31 in    
Wind  
Wind Speed 3 mph (SSE)    
Max Wind Speed 12 mph    
Max Gust Speed 18 mph    
Visibility 10 miles    
Events      
Averages and records for this station are not official NWS values.
T = Trace of Precipitation, MM = Missing Value Source: NWS Daily Summary

Daily Weather History Graph

Daily Weather History Graph

Search for Another Location

Airport or City:

Trip Planner

Search our weather history database for the weather conditions in past years. The results will help you decide how hot, cold, wet, or windy it might be!

Date:

Astronomy

Feb. 17, 2013 Rise Set
Actual Time 6:39 AM CST 5:51 PM CST
Civil Twilight 6:15 AM CST 6:16 PM CST
Nautical Twilight 5:47 AM CST 6:44 PM CST
Astronomical Twilight 5:19 AM CST 7:12 PM CST
Moon 11:05 AM CST (2/17) 12:15 AM CST (2/17)
Length of Visible Light 12h 00m
Length of Day
11h 11m
Waxing Crescent, 49% of the Moon is Illuminated
Feb 17
Waxing Crescent
Feb 17
First Quarter
Feb 25
Full
Mar 4
Last Quarter
Mar 11
New

Hourly Weather History & Observations

Time (CST) Temp. Windchill Dew Point Humidity Pressure Visibility Wind Dir Wind Speed Gust Speed Precip Events Conditions
12:15 AM 33.8 °F - 30.2 °F 87% 30.32 in 10.0 mi Calm Calm - N/A   Clear
12:35 AM 32.0 °F - 30.2 °F 93% 30.32 in 10.0 mi Calm Calm - N/A   Clear
12:55 AM 32.0 °F - 30.2 °F 93% 30.33 in 10.0 mi Calm Calm - N/A   Clear
1:15 AM 32.0 °F - 30.2 °F 93% 30.33 in 10.0 mi Calm Calm - N/A   Clear
1:35 AM 35.6 °F - 28.4 °F 75% 30.33 in 10.0 mi Calm Calm - N/A   Clear
1:55 AM 33.8 °F - 26.6 °F 75% 30.33 in 10.0 mi Calm Calm - N/A   Clear
2:15 AM 35.6 °F - 26.6 °F 70% 30.33 in 10.0 mi Calm Calm - N/A   Clear
2:35 AM 35.6 °F - 26.6 °F 70% 30.33 in 10.0 mi Calm Calm - N/A   Clear
2:55 AM 33.8 °F - 26.6 °F 75% 30.33 in 10.0 mi Calm Calm - N/A   Clear
3:15 AM 33.8 °F - 26.6 °F 75% 30.33 in 10.0 mi Calm Calm - N/A   Clear
3:35 AM 33.8 °F - 26.6 °F 75% 30.33 in 10.0 mi Calm Calm - N/A   Clear
3:55 AM 33.8 °F - 26.6 °F 75% 30.32 in 10.0 mi Calm Calm - N/A   Clear
4:15 AM 33.8 °F - 26.6 °F 75% 30.33 in 10.0 mi Calm Calm - N/A   Clear
4:35 AM 33.8 °F - 26.6 °F 75% 30.33 in 10.0 mi Calm Calm - N/A   Clear
4:55 AM 33.8 °F - 26.6 °F 75% 30.33 in 10.0 mi Calm Calm - N/A   Clear
5:15 AM 33.8 °F - 26.6 °F 75% 30.33 in 10.0 mi Calm Calm - N/A   Clear
5:35 AM 32.0 °F 27.5 °F 28.4 °F 87% 30.33 in 10.0 mi East 4.6 mph - N/A   Clear
5:55 AM 33.8 °F - 26.6 °F 75% 30.33 in 10.0 mi Calm Calm - N/A   Clear
6:15 AM 33.8 °F - 26.6 °F 75% 30.34 in 10.0 mi Calm Calm - N/A   Clear
6:35 AM 33.8 °F - 24.8 °F 70% 30.34 in 10.0 mi Calm Calm - N/A   Clear
6:55 AM 33.8 °F - 24.8 °F 70% 30.35 in 10.0 mi Calm Calm - N/A   Clear
7:15 AM 35.6 °F - 26.6 °F 70% 30.35 in 10.0 mi Calm Calm - N/A   Clear
7:35 AM 35.6 °F - 26.6 °F 70% 30.36 in 10.0 mi Calm Calm - N/A   Clear
7:55 AM 37.4 °F 34.9 °F 26.6 °F 65% 30.37 in 10.0 mi ESE 3.5 mph - N/A   Clear
8:15 AM 41.0 °F 38.0 °F 24.8 °F 53% 30.38 in 10.0 mi East 4.6 mph - N/A   Clear
8:35 AM 42.8 °F 40.1 °F 24.8 °F 49% 30.38 in 10.0 mi East 4.6 mph - N/A   Clear
8:55 AM 44.6 °F 42.2 °F 26.6 °F 49% 30.38 in 10.0 mi ESE 4.6 mph - N/A   Clear
9:15 AM 46.4 °F 43.5 °F 30.2 °F 53% 30.38 in 10.0 mi SE 5.8 mph - N/A   Clear
9:35 AM 48.2 °F - 30.2 °F 50% 30.38 in 10.0 mi SE 8.1 mph - N/A   Clear
9:55 AM 50.0 °F - 32.0 °F 50% 30.38 in 10.0 mi SE 8.1 mph - N/A   Clear
10:15 AM 51.8 °F - 33.8 °F 50% 30.38 in 10.0 mi SSE 6.9 mph - N/A   Clear
10:35 AM 53.6 °F - 33.8 °F 47% 30.38 in 10.0 mi ESE 4.6 mph - N/A   Clear
10:55 AM 55.4 °F - 33.8 °F 44% 30.38 in 10.0 mi SSE 4.6 mph - N/A   Clear
11:15 AM 55.4 °F - 33.8 °F 44% 30.37 in 10.0 mi South 4.6 mph - N/A   Clear
11:35 AM 57.2 °F - 32.0 °F 38% 30.36 in 10.0 mi SSE 5.8 mph - N/A   Clear
11:55 AM 57.2 °F - 28.4 °F 33% 30.35 in 10.0 mi SSE 9.2 mph - N/A   Clear
12:15 PM 57.2 °F - 28.4 °F 33% 30.34 in 10.0 mi SE 6.9 mph - N/A   Clear
12:35 PM 57.2 °F - 28.4 °F 33% 30.33 in 10.0 mi SSE 9.2 mph - N/A   Clear
12:55 PM 59.0 °F - 28.4 °F 31% 30.31 in 10.0 mi SSE 11.5 mph 16.1 mph N/A   Clear
1:15 PM 59.0 °F - 26.6 °F 29% 30.30 in 10.0 mi SSE 5.8 mph - N/A   Clear
1:35 PM 59.0 °F - 26.6 °F 29% 30.29 in 10.0 mi SSW 6.9 mph - N/A   Clear
1:55 PM 59.0 °F - 26.6 °F 29% 30.28 in 10.0 mi SSW 5.8 mph - N/A   Clear
2:15 PM 60.8 °F - 26.6 °F 27% 30.28 in 10.0 mi SSE 11.5 mph - N/A   Clear
2:35 PM 60.8 °F - 26.6 °F 27% 30.27 in 10.0 mi South 4.6 mph 18.4 mph N/A   Clear
2:55 PM 60.8 °F - 28.4 °F 29% 30.26 in 10.0 mi SSW 10.4 mph - N/A   Clear
3:15 PM 60.8 °F - 28.4 °F 29% 30.26 in 10.0 mi SSE 6.9 mph - N/A   Clear
3:35 PM 60.8 °F - 28.4 °F 29% 30.25 in 10.0 mi SSE 9.2 mph - N/A   Clear
3:55 PM 60.8 °F - 30.2 °F 31% 30.25 in 10.0 mi SSE 10.4 mph - N/A   Clear
4:15 PM 60.8 °F - 30.2 °F 31% 30.25 in 10.0 mi SSE 11.5 mph - N/A   Clear
4:35 PM 59.0 °F - 32.0 °F 36% 30.25 in 10.0 mi SE 8.1 mph - N/A   Clear
4:55 PM 59.0 °F - 32.0 °F 36% 30.25 in 10.0 mi SSE 9.2 mph - N/A   Clear
5:15 PM 57.2 °F - 32.0 °F 38% 30.25 in 10.0 mi SSE 8.1 mph - N/A   Clear
5:35 PM 55.4 °F - 33.8 °F 44% 30.25 in 10.0 mi SE 8.1 mph - N/A   Clear
5:55 PM 53.6 °F - 35.6 °F 51% 30.25 in 10.0 mi SE 8.1 mph - N/A   Clear
6:15 PM 51.8 °F - 35.6 °F 54% 30.25 in 10.0 mi SE 6.9 mph - N/A   Clear
6:35 PM 50.0 °F - 37.4 °F 62% 30.25 in 10.0 mi SE 8.1 mph - N/A   Clear
6:55 PM 51.8 °F - 37.4 °F 58% 30.25 in 10.0 mi SSE 10.4 mph - N/A   Clear
7:15 PM 51.8 °F - 37.4 °F 58% 30.25 in 10.0 mi SSE 11.5 mph - N/A   Clear
7:35 PM 51.8 °F - 37.4 °F 58% 30.26 in 10.0 mi SSE 8.1 mph - N/A   Clear
7:55 PM 50.0 °F - 37.4 °F 62% 30.26 in 10.0 mi SSE 8.1 mph - N/A   Clear
8:15 PM 50.0 °F - 37.4 °F 62% 30.27 in 10.0 mi SSE 6.9 mph - N/A   Clear
8:35 PM 48.2 °F - 37.4 °F 66% 30.27 in 10.0 mi SSE 5.8 mph - N/A   Clear
8:55 PM 48.2 °F - 37.4 °F 66% 30.27 in 10.0 mi SE 4.6 mph - N/A   Clear
9:15 PM 46.4 °F 43.5 °F 37.4 °F 71% 30.27 in 10.0 mi SE 5.8 mph - N/A   Clear
9:35 PM 46.4 °F 44.3 °F 37.4 °F 71% 30.28 in 10.0 mi SE 4.6 mph - N/A   Clear
9:55 PM 46.4 °F 44.3 °F 37.4 °F 71% 30.27 in 10.0 mi SSE 4.6 mph - N/A   Clear
10:15 PM 46.4 °F 44.3 °F 37.4 °F 71% 30.27 in 10.0 mi SSE 4.6 mph - N/A   Clear
10:35 PM 46.4 °F 44.3 °F 39.2 °F 76% 30.26 in 10.0 mi SE 4.6 mph - N/A   Clear
10:55 PM 46.4 °F 45.2 °F 39.2 °F 76% 30.26 in 10.0 mi SE 3.5 mph - N/A   Clear
11:15 PM 44.6 °F 42.2 °F 37.4 °F 76% 30.25 in 10.0 mi SE 4.6 mph - N/A   Clear
11:35 PM 46.4 °F 45.2 °F 37.4 °F 71% 30.26 in 10.0 mi SE 3.5 mph - N/A   Clear
11:55 PM 44.6 °F - 37.4 °F 76% 30.25 in 10.0 mi Calm Calm - N/A   Clear